Regional Weather Roundup
Issued by NWS

Home | Current Version | Previous Version | Graphics & Text | Print | Product List | Glossary On
Versions: 1 2 3 4 5 6 7 8 9 10 11 12 13 14 15 16 17 18 19 20 21 22 23 24 25 26 27 28 29 30 31 32 33 34 35 36 37 38 39 40 41 42 43 44 45 46 47 48 49 50
000
ASUS44 KMEG 220400
RWRTN
TENNESSEE HOURLY STATE WEATHER ROUNDUP
NATIONAL WEATHER SERVICE MEMPHIS TN
1000 PM CST SUN DEC 21 2014

TNZ002-004-019-021-049-052-054-088>092-220500-
WEST TENNESSEE

CITY           SKY/WX    TMP DP  RH WIND       PRES   REMARKS
MEMPHIS INTL   PTCLDY    47  39  74 SE8       29.95F
NWS MEMPHIS      N/A     44 N/A N/A MISG        N/A
JACKSON        CLEAR     44  37  76 CALM      29.98F
DYERSBURG      PTCLDY    41  23  48 E6        29.99F
UNION CITY     CLOUDY    39  30  70 SE3       29.97F
PARIS          CLOUDY    37  30  75 SE6       29.99S WCI  33
LEXINGTON      CLEAR     39  36  87 SE5       29.98F
SAVANNAH       PTCLDY    32  32 100 CALM      30.01F
$$

TNZ008-025-027-028-033-062-065-066-220500-
NORTH MIDDLE TENNESSEE

CITY           SKY/WX    TMP DP  RH WIND       PRES   REMARKS
NASHVILLE      PTCLDY    43  37  79 CALM      30.04F
CLARKSVILLE    PTCLDY    39  31  72 E5        30.02F
COOKEVILLE     CLOUDY    46  39  76 S3        30.07R
CROSSVILLE     CLOUDY    45  36  70 CALM      30.08S
$$

TNZ061-075-076-078-094-096-097-220500-
SOUTH MIDDLE TENNESSEE

CITY           SKY/WX    TMP DP  RH WIND       PRES   REMARKS
FAYETTEVILLE   CLOUDY    46  43  87 MISG      30.04F
TULLAHOMA      CLOUDY    46  41  81 SE7       30.05F
WINCHESTER     CLOUDY    46  43  87 SE3       30.07F
SHELBYVILLE    MOCLDY    46  43  87 SE6       30.05F
$$

TNZ017-018-042-046-047-220500-
NORTHEAST TENNESSEE

CITY           SKY/WX    TMP DP  RH WIND       PRES   REMARKS
TRI CITIES     MOCLDY    38  33  82 NE3       30.12R
ELIZABETHTON   CLEAR     37  34  87 E6        30.13R WCI  33
$$

TNZ012-013-036-069-073-074-220500-
CENTRAL EAST TENNESSEE

CITY           SKY/WX    TMP DP  RH WIND       PRES   REMARKS
KNOXVILLE      CLOUDY    41  36  82 CALM      30.09S
OAK RIDGE      CLOUDY    45  37  73 CALM      30.11S
GATLINBURG     CLEAR     34  34 100 CALM      30.09F
$$

TNZ083-085-099-220500-
SOUTHEAST TENNESSEE

CITY           SKY/WX    TMP DP  RH WIND       PRES   REMARKS
CHATTANOOGA    CLOUDY    46  40  79 CALM      30.10F
$$

SKY/WX REPORTED AS FAIR MEANS FEW OR NO CLOUDS BELOW
12 THOUSAND FEET.



USA.gov is the U.S. government's official web portal to all federal, state and local government web resources and services.